"Timestamp","TZ","WindDir_Mean (deg)","WindSpd_Mean (km/h)","WindSpd_Min (km/h)","WindSpd_Max (km/h)","Temp_Mean (deg)","RH_Mean (%)","MSLP_Mean (hPa)","Rain_Acc (mm)","Rain_Intensity (mm/h)","Hail_Acc (hits/cm2)","Hail_Intensity (hits/cm2hr)","Solar_Mean (W/m2)"
2018/04/06 00:00:00.010,n,172,3.24,3.24,3.96,19.9,76.8,1015.62,0,0,0,0,0.024376
2018/04/06 00:01:00.000,n,184,3.96,3.96,4.32,19.9,76.6,1015.62,0,0,0,0,0.025253
2018/04/06 00:02:00.000,n,172,1.8,0.36,2.88,19.9,76.7,1015.62,0,0,0,0,0.034828
2018/04/06 00:03:00.002,n,195,4.68,3.6,5.76,19.9,76.7,1015.62,0,0,0,0,0.033073
2018/04/06 00:04:00.000,n,189,4.32,3.6,5.04,19.9,76.6,1015.62,0,0,0,0,0.029602
2018/04/06 00:05:00.000,n,195,3.6,2.52,3.96,19.9,76.5,1015.62,0,0,0,0,0.027008
2018/04/06 00:06:00.009,n,164,2.88,2.52,3.24,19.9,76.5,1015.62,0,0,0,0,0.025253
2018/04/06 00:07:00.006,n,206,3.24,2.88,3.6,19.9,76.3,1015.62,0,0,0,0,0.027008
2018/04/06 00:08:00.003,n,173,6.12,5.4,6.84,19.9,76,1015.52,0,0,0,0,0.035706
2018/04/06 00:09:00.000,n,213,3.6,2.88,5.76,19.9,76,1015.52,0,0,0,0,0.034828
2018/04/06 00:10:00.000,n,162,3.6,2.88,3.96,19.9,75.8,1015.52,0,0,0,0,0.033073
2018/04/06 00:11:00.000,n,220,2.52,1.8,4.32,19.9,75.8,1015.52,0,0,0,0,0.026131
2018/04/06 00:12:00.000,n,207,7.56,6.84,7.92,19.9,75.1,1015.52,0,0,0,0,0.033073
2018/04/06 00:13:00.004,n,192,7.56,6.48,7.92,19.9,75.1,1015.52,0,0,0,0,0.032234
2018/04/06 00:14:00.002,n,179,4.68,4.32,5.04,19.9,75.2,1015.52,0,0,0,0,0.033073
2018/04/06 00:15:00.000,n,175,6.48,2.88,8.28,20,75.1,1015.52,0,0,0,0,0.033073
2018/04/06 00:16:00.012,n,123,2.52,0.72,4.32,20,75,1015.52,0,0,0,0,0.022659
2018/04/06 00:17:00.010,n,250,2.16,1.44,2.88,20,75.2,1015.52,0,0,0,0,0.026131
2018/04/06 00:18:00.008,n,176,5.04,4.32,6.48,20,75.1,1015.62,0,0,0,0,0.024376
2018/04/06 00:19:00.000,n,202,1.44,0.36,2.16,20,75,1015.62,0,0,0,0,0.022659
2018/04/06 00:20:00.003,n,244,2.16,1.8,2.88,20,75.2,1015.62,0,0,0,0,0.024376
2018/04/06 00:21:00.000,n,206,1.8,1.8,2.16,19.9,75,1015.62,0,0,0,0,0.020027
2018/04/06 00:22:00.006,n,149,7.2,5.76,7.92,19.9,75,1015.62,0,0,0,0,0.022659
2018/04/06 00:23:00.005,n,246,4.32,3.6,5.76,19.9,75.1,1015.62,0,0,0,0,0.021782
2018/04/06 00:24:00.002,n,88,0.72,0.36,0.72,19.9,75.1,1015.62,0,0,0,0,0.025253
2018/04/06 00:25:00.000,n,189,3.6,3.24,3.96,19.9,75.2,1015.62,0,0,0,0,0.027885
2018/04/06 00:26:00.012,n,225,2.16,2.16,2.88,19.9,75.1,1015.62,0,0,0,0,0.025253
2018/04/06 00:27:00.010,n,230,3.6,3.24,4.32,19.9,75.1,1015.62,0,0,0,0,0.030479
2018/04/06 00:28:00.000,n,248,2.52,1.8,3.24,19.9,75.2,1015.62,0,0,0,0,0.022659
2018/04/06 00:29:00.003,n,170,1.08,0.36,1.44,19.9,74.9,1015.62,0,0,0,0,0.027885
2018/04/06 00:30:00.000,n,236,2.52,1.8,3.24,19.8,75.2,1015.62,0,0,0,0,0.023499
2018/04/06 00:31:00.000,n,192,1.08,0.72,1.44,19.9,75.2,1015.62,0,0,0,0,0.020905
2018/04/06 00:32:00.000,n,236,2.52,2.16,2.88,19.8,75.3,1015.62,0,0,0,0,0.022659
2018/04/06 00:33:00.008,n,219,2.88,2.52,2.88,19.8,75.3,1015.62,0,0,0,0,0.027008
2018/04/06 00:34:00.005,n,177,0,0,0.36,19.8,75.5,1015.62,0,0,0,0,0.01915
2018/04/06 00:35:00.003,n,182,2.52,2.16,3.24,19.8,75.6,1015.62,0,0,0,0,0.017433
2018/04/06 00:36:00.016,n,213,2.16,1.8,2.52,19.8,75.9,1015.52,0,0,0,0,0.020905
2018/04/06 00:37:00.000,n,142,3.6,2.52,4.68,19.8,75.5,1015.52,0,0,0,0,0.018311
2018/04/06 00:38:00.000,n,184,2.88,2.16,3.6,19.8,75.4,1015.52,0,0,0,0,0.016556
2018/04/06 00:39:00.000,n,238,1.8,1.44,2.52,19.8,75.6,1015.52,0,0,0,0,0.020905
2018/04/06 00:40:00.005,n,229,0.72,0.36,1.44,19.8,75.7,1015.52,0,0,0,0,0.018311
2018/04/06 00:41:00.003,n,249,1.8,1.08,2.52,19.8,75.9,1015.52,0,0,0,0,0.015678
2018/04/06 00:42:00.000,n,191,6.84,5.76,7.56,19.8,75.2,1015.52,0,0,0,0,0.020905
2018/04/06 00:43:00.012,n,175,3.96,3.24,4.32,19.8,75.3,1015.52,0,0,0,0,0.015678
2018/04/06 00:44:00.010,n,245,1.08,0.36,1.8,19.8,75.2,1015.52,0,0,0,0,0.018311
2018/04/06 00:45:00.006,n,225,5.4,5.04,6.12,19.8,75.2,1015.52,0,0,0,0,0.020027
2018/04/06 00:46:00.000,n,174,4.32,3.6,4.68,19.8,75.1,1015.52,0,0,0,0,0.017433
2018/04/06 00:47:00.000,n,199,1.08,0.72,1.44,19.8,75.1,1015.52,0,0,0,0,0.018311
2018/04/06 00:48:00.000,n,252,1.8,0.72,3.6,19.8,75.2,1015.52,0,0,0,0,0.021782
2018/04/06 00:49:00.000,n,148,2.52,1.8,2.52,19.8,75.2,1015.52,0,0,0,0,0.01915
2018/04/06 00:50:00.008,n,221,1.08,0.72,1.08,19.8,75.2,1015.52,0,0,0,0,0.01915
2018/04/06 00:51:00.005,n,210,1.8,1.44,2.16,19.8,75.2,1015.42,0,0,0,0,0.015678
2018/04/06 00:52:00.002,n,195,1.44,1.08,2.16,19.8,75.2,1015.42,0,0,0,0,0.018311
2018/04/06 00:53:00.000,n,231,2.52,1.8,2.88,19.8,75.2,1015.42,0,0,0,0,0.018311
2018/04/06 00:54:00.015,n,33,0.72,0.36,1.08,19.7,75.1,1015.42,0,0,0,0,0.017433
2018/04/06 00:55:00.000,n,216,1.08,0.72,1.44,19.7,75.1,1015.42,0,0,0,0,0.015678
2018/04/06 00:56:00.000,n,211,1.08,0.72,1.08,19.7,75.2,1015.42,0,0,0,0,0.018311
2018/04/06 00:57:00.000,n,150,1.8,1.44,2.16,19.7,75.2,1015.42,0,0,0,0,0.018311
2018/04/06 00:58:00.005,n,224,2.52,2.16,2.88,19.7,75.1,1015.42,0,0,0,0,0.020027
2018/04/06 00:59:00.004,n,207,1.08,1.08,1.08,19.7,75.2,1015.42,0,0,0,0,0.020905
2018/04/06 01:00:00.001,n,155,3.6,3.24,4.32,19.7,74.8,1015.42,0,0,0,0,0.014801
2018/04/06 01:01:00.000,n,236,3.6,3.24,4.32,19.7,75.1,1015.32,0,0,0,0,0.018311
2018/04/06 01:02:00.011,n,228,0.72,0.72,1.08,19.7,75.2,1015.32,0,0,0,0,0.015678
2018/04/06 01:03:00.008,n,261,5.4,3.96,6.48,19.7,74.9,1015.32,0,0,0,0,0.020905
2018/04/06 01:04:00.000,n,261,2.88,2.16,3.96,19.6,75,1015.32,0,0,0,0,0.016556
2018/04/06 01:05:00.002,n,250,2.88,2.52,3.24,19.6,75.1,1015.32,0,0,0,0,0.020905
2018/04/06 01:06:00.000,n,306,1.44,1.08,1.8,19.6,75.2,1015.32,0,0,0,0,0.014801
2018/04/06 01:07:00.000,n,290,1.08,0.72,1.44,19.6,75.8,1015.42,0,0,0,0,0.018311
2018/04/06 01:08:00.000,n,323,1.8,0.72,3.96,19.6,75.7,1015.42,0,0,0,0,0.017433
2018/04/06 01:09:00.006,n,229,2.16,1.8,2.52,19.6,75.4,1015.42,0,0,0,0,0.016556
2018/04/06 01:10:00.004,n,191,0.36,0,0.72,19.6,75.4,1015.32,0,0,0,0,0.013084
2018/04/06 01:11:00.000,n,251,2.16,0.72,3.24,19.6,75.3,1015.32,0,0,0,0,0.015678
2018/04/06 01:12:00.000,n,213,2.88,1.8,3.96,19.6,75.2,1015.32,0,0,0,0,0.012207
2018/04/06 01:13:00.000,n,182,1.8,1.08,2.16,19.6,75.8,1015.32,0,0,0,0,0.016556
2018/04/06 01:14:00.000,n,248,2.16,0.36,3.6,19.6,75.4,1015.32,0,0,0,0,0.015678
2018/04/06 01:15:00.000,n,206,1.44,1.08,2.16,19.6,75.5,1015.32,0,0,0,0,0.014801
2018/04/06 01:16:00.003,n,246,4.68,1.08,6.48,19.5,75.5,1015.32,0,0,0,0,0.016556
2018/04/06 01:17:00.001,n,173,3.6,1.8,4.32,19.5,75.4,1015.32,0,0,0,0,0.014801
2018/04/06 01:18:00.000,n,256,3.6,2.88,4.32,19.5,75.8,1015.32,0,0,0,0,0.012207
2018/04/06 01:19:00.011,n,290,2.16,1.44,3.24,19.5,75.7,1015.32,0,0,0,0,0.013084
2018/04/06 01:20:00.008,n,221,1.8,1.44,2.16,19.5,75.7,1015.32,0,0,0,0,0.028725
2018/04/06 01:21:00.006,n,220,3.24,2.52,3.96,19.5,75.7,1015.32,0,0,0,0,0.032196
2018/04/06 01:22:00.000,n,215,3.96,3.24,4.32,19.4,75.6,1015.32,0,0,0,0,0.031357
2018/04/06 01:23:00.000,n,229,3.6,2.88,4.32,19.4,75.7,1015.32,0,0,0,0,0.029564
2018/04/06 01:24:00.000,n,261,2.88,1.8,3.6,19.4,75.7,1015.22,0,0,0,0,0.030479
2018/04/06 01:25:00.000,n,280,1.08,0.72,1.08,19.4,75.9,1015.22,0,0,0,0,0.028725
2018/04/06 01:26:00.007,n,258,1.44,1.44,1.8,19.4,75.9,1015.32,0,0,0,0,0.032196
2018/04/06 01:27:00.005,n,26,0.72,0.36,1.08,19.4,76.2,1015.22,0,0,0,0,0.030479
2018/04/06 01:28:00.002,n,174,2.52,0.72,3.96,19.4,75.7,1015.22,0,0,0,0,0.031357
2018/04/06 01:29:00.000,n,247,3.24,2.52,3.6,19.3,75.7,1015.22,0,0,0,0,0.031357
2018/04/06 01:30:00.013,n,257,5.76,5.4,6.48,19.3,76.1,1015.22,0,0,0,0,0.029564
2018/04/06 01:31:00.000,n,227,1.8,1.44,2.16,19.4,76.4,1015.22,0,0,0,0,0.027847
2018/04/06 01:32:00.000,n,279,2.52,2.16,3.6,19.4,76.2,1015.22,0,0,0,0,0.030479
2018/04/06 01:33:00.004,n,219,2.16,1.44,2.52,19.3,76,1015.22,0,0,0,0,0.030479
2018/04/06 01:34:00.001,n,242,4.32,3.96,4.68,19.3,76,1015.22,0,0,0,0,0.023499
2018/04/06 01:35:00.000,n,192,3.6,3.24,3.96,19.3,76,1015.22,0,0,0,0,0.025253
2018/04/06 01:36:00.000,n,263,6.12,5.04,7.56,19.3,76.5,1015.22,0,0,0,0,0.026131
2018/04/06 01:37:00.010,n,223,3.6,3.24,3.96,19.3,76.3,1015.22,0,0,0,0,0.026131
2018/04/06 01:38:00.008,n,265,6.84,5.4,8.28,19.3,76.3,1015.22,0,0,0,0,0.024376
2018/04/06 01:39:00.005,n,241,3.24,2.52,3.96,19.3,76.7,1015.22,0,0,0,0,0.025253
2018/04/06 01:40:00.000,n,260,4.32,3.24,4.68,19.3,76.5,1015.22,0,0,0,0,0.020905
2018/04/06 01:41:00.000,n,193,1.44,1.44,1.8,19.2,76.2,1015.22,0,0,0,0,0.022621
2018/04/06 01:42:00.000,n,245,1.44,1.08,1.8,19.2,76.2,1015.22,0,0,0,0,0.024376
2018/04/06 01:43:00.000,n,288,1.08,0.72,1.44,19.2,76.6,1015.22,0,0,0,0,0.024376
2018/04/06 01:44:00.008,n,259,3.96,2.88,4.68,19.2,76.3,1015.22,0,0,0,0,0.023499
2018/04/06 01:45:00.006,n,247,5.4,4.68,6.12,19.2,76.3,1015.22,0,0,0,0,0.024376
2018/04/06 01:46:00.003,n,231,0.72,0.36,0.72,19.2,76.4,1015.22,0,0,0,0,0.020905
2018/04/06 01:47:00.000,n,243,3.6,2.88,3.96,19.2,76.4,1015.22,0,0,0,0,0.026131
2018/04/06 01:48:00.011,n,253,3.96,2.16,5.4,19.2,76.2,1015.12,0,0,0,0,0.031357
2018/04/06 01:49:00.000,n,249,0.72,0.36,1.08,19.2,76.5,1015.12,0,0,0,0,0.032196
2018/04/06 01:50:00.000,n,205,3.24,2.52,4.32,19.1,76.2,1015.12,0,0,0,0,0.034828
2018/04/06 01:51:00.004,n,308,3.96,2.52,4.68,19.1,76.1,1015.12,0,0,0,0,0.032196
2018/04/06 01:52:00.001,n,269,2.52,1.44,3.24,19.1,76.9,1015.12,0,0,0,0,0.031357
2018/04/06 01:53:00.000,n,251,4.68,4.32,5.04,19.1,76.2,1015.12,0,0,0,0,0.027847
2018/04/06 01:54:00.000,n,269,2.88,2.52,3.6,19.1,75.8,1015.12,0,0,0,0,0.029602
2018/04/06 01:55:00.009,n,270,1.08,0.72,1.44,19.1,76.1,1015.22,0,0,0,0,0.030479
2018/04/06 01:56:00.006,n,231,1.8,1.44,2.16,19.1,76,1015.12,0,0,0,0,0.028725
2018/04/06 01:57:00.003,n,212,3.96,2.88,4.32,19.1,75.6,1015.12,0,0,0,0,0.032196
2018/04/06 01:58:00.000,n,225,4.68,3.24,5.04,19,75.5,1015.12,0,0,0,0,0.032196
2018/04/06 01:59:00.000,n,219,2.88,1.8,3.96,19,75.3,1015.12,0,0,0,0,0.025253
2018/04/06 02:00:00.000,n,152,2.52,2.16,3.6,19,75.1,1015.12,0,0,0,0,0.031357
2018/04/06 02:01:00.000,n,181,1.44,1.08,2.16,19,75.4,1015.22,0,0,0,0,0.028725
2018/04/06 02:02:00.003,n,231,3.6,2.88,3.96,19,75.2,1015.22,0,0,0,0,0.025253
2018/04/06 02:03:00.000,n,193,5.04,4.32,5.76,19,75.2,1015.22,0,0,0,0,0.030479
2018/04/06 02:04:00.000,n,242,1.8,1.8,2.16,19,75,1015.22,0,0,0,0,0.031357
2018/04/06 02:05:00.011,n,217,3.6,2.16,3.96,19,74.7,1015.22,0,0,0,0,0.026131
2018/04/06 02:06:00.008,n,241,3.96,3.6,4.32,19,75.2,1015.22,0,0,0,0,0.028725
2018/04/06 02:07:00.000,n,247,2.52,1.8,2.88,19,75.1,1015.22,0,0,0,0,0.023499
2018/04/06 02:08:00.001,n,244,2.16,0,2.88,19,75.5,1015.22,0,0,0,0,0.028725
2018/04/06 02:09:00.000,n,231,2.16,2.16,2.16,19.1,75.1,1015.22,0,0,0,0,0.029602
2018/04/06 02:10:00.000,n,244,2.16,1.08,2.88,19.1,75.9,1015.22,0,0,0,0,0.024376
2018/04/06 02:11:00.000,n,280,5.4,4.68,6.12,19.1,76.7,1015.22,0,0,0,0,0.027847
2018/04/06 02:12:00.007,n,225,2.88,2.16,3.24,19.2,76.2,1015.22,0,0,0,0,0.02697
2018/04/06 02:13:00.004,n,215,3.24,2.88,3.6,19.2,76,1015.22,0,0,0,0,0.025253
2018/04/06 02:14:00.001,n,212,1.8,1.44,2.16,19.1,75.9,1015.32,0,0,0,0,0.024376
2018/04/06 02:15:00.015,n,245,0.72,0,1.8,19.1,76.1,1015.32,0,0,0,0,0.025253
2018/04/06 02:16:00.000,n,188,2.16,2.16,2.16,19.1,76.3,1015.32,0,0,0,0,0.026131
2018/04/06 02:17:00.000,n,202,4.32,3.96,5.04,19.2,76.5,1015.32,0,0,0,0,0.026131
2018/04/06 02:18:00.000,n,165,1.44,0.36,2.16,19.2,76.5,1015.32,0,0,0,0,0.027847
2018/04/06 02:19:00.004,n,133,1.44,1.08,1.8,19.2,76.4,1015.32,0,0,0,0,0.025253
2018/04/06 02:20:00.002,n,178,0.72,0.36,2.52,19.2,76.4,1015.32,0,0,0,0,0.026131
2018/04/06 02:21:00.000,n,273,2.16,1.8,2.52,19.2,76.4,1015.32,0,0,0,0,0.026131
2018/04/06 02:22:00.011,n,53,0.72,0.36,1.08,19.2,76.7,1015.32,0,0,0,0,0.027847
2018/04/06 02:23:00.009,n,220,2.88,2.52,3.24,19.2,76.8,1015.32,0,0,0,0,0.02697
2018/04/06 02:24:00.007,n,249,3.6,3.24,3.6,19.2,76.6,1015.32,0,0,0,0,0.027847
2018/04/06 02:25:00.000,n,157,1.08,0.36,1.44,19.2,76.7,1015.32,0,0,0,0,0.030479
2018/04/06 02:26:00.001,n,233,3.96,3.6,4.32,19.2,76.6,1015.32,0,0,0,0,0.027847
2018/04/06 02:27:00.000,n,314,1.8,0.72,2.16,19.2,76.7,1015.32,0,0,0,0,0.029602
2018/04/06 02:28:00.000,n,120,1.08,0.72,1.08,19.2,76.5,1015.42,0,0,0,0,0.031357
2018/04/06 02:29:00.008,n,55,3.24,1.8,3.96,19.3,76.8,1015.42,0,0,0,0,0.031357
2018/04/06 02:30:00.006,n,38,5.04,4.68,5.4,19.3,76.9,1015.42,0,0,0,0,0.032196
2018/04/06 02:31:00.002,n,34,9,8.28,9.36,19.3,76.4,1015.52,0,0,0,0,0.028725
2018/04/06 02:32:00.000,n,34,9.72,6.84,15.12,19.3,76.5,1015.62,0,0,0,0,0.034828
2018/04/06 02:33:00.013,n,50,3.24,2.52,4.68,19.3,76.9,1015.62,0,0,0,0,0.028725
2018/04/06 02:34:00.000,n,71,4.32,3.96,5.04,19.3,76.8,1015.72,0,0,0,0,0.034828
2018/04/06 02:35:00.000,n,60,1.44,0.72,2.16,19.4,76.2,1015.62,0.02,0.6,0,0,0.031357
2018/04/06 02:36:00.000,n,257,2.16,1.8,2.88,19.3,76.2,1015.52,0.03,0.8,0,0,0.028725
2018/04/06 02:37:00.002,n,198,5.76,5.4,6.12,19.3,76.4,1015.52,0.03,0,0,0,0.032196
2018/04/06 02:38:00.008,n,180,4.32,3.96,4.68,19.3,76.4,1015.52,0.08,1,0,0,0.033073
2018/04/06 02:39:00.000,n,257,0.72,0.36,1.44,19.3,77.3,1015.52,0.17,6.8,0,0,0.033073
2018/04/06 02:40:00.012,n,66,3.24,2.52,3.96,19.3,77.1,1015.52,0.17,0.5,0,0,0.032196
2018/04/06 02:41:00.009,n,66,2.52,2.16,3.6,19.3,78.2,1015.62,0.18,0.2,0,0,0.035706
2018/04/06 02:42:00.007,n,31,4.32,3.6,4.68,19.3,77.8,1015.52,0.18,0,0,0,0.037422
2018/04/06 02:43:00.000,n,26,3.6,3.6,3.96,19.2,78.1,1015.52,0.18,0,0,0,0.035706
2018/04/06 02:44:00.004,n,29,1.44,0.72,2.52,19.2,78.5,1015.52,0.18,0,0,0,0.032196
2018/04/06 02:45:00.000,n,36,2.16,2.16,2.52,19.2,77.8,1015.52,0.18,0,0,0,0.036545
2018/04/06 02:46:00.000,n,21,0.72,0.72,1.08,19.1,77.9,1015.52,0.18,0,0,0,0.036545
2018/04/06 02:47:00.000,n,250,2.52,1.8,3.24,19.1,78.6,1015.52,0.18,0,0,0,0.035706
2018/04/06 02:48:00.011,n,252,3.6,3.6,3.96,19.1,78.2,1015.42,0.18,0,0,0,0.033073
2018/04/06 02:49:00.007,n,251,4.68,4.68,5.04,19,78.2,1015.42,0.18,0,0,0,0.034828
2018/04/06 02:50:00.004,n,241,4.68,4.32,5.04,19,78.1,1015.42,0.18,0,0,0,0.035706
2018/04/06 02:51:00.001,n,243,6.48,6.12,6.48,19,78.7,1015.32,0.18,0,0,0,0.032196
2018/04/06 02:52:00.000,n,246,6.48,6.48,6.84,19,79,1015.32,0.18,0,0,0,0.035706
2018/04/06 02:53:00.000,n,236,5.4,4.32,6.12,19,79.1,1015.32,0.18,0,0,0,0.035706
2018/04/06 02:54:00.000,n,221,3.6,3.24,4.32,19,79.5,1015.32,0.18,0,0,0,0.033951
2018/04/06 02:55:00.006,n,212,1.8,1.44,1.8,18.9,79.1,1015.32,0.18,0,0,0,0.036545
2018/04/06 02:56:00.003,n,205,2.88,1.44,3.96,18.9,79.1,1015.32,0.18,0,0,0,0.036545
2018/04/06 02:57:00.000,n,208,5.04,4.68,5.4,18.9,78.8,1015.32,0.18,0,0,0,0.033073
2018/04/06 02:58:00.000,n,213,2.52,1.8,3.24,18.9,79.1,1015.32,0.18,0,0,0,0.033073
2018/04/06 02:59:00.012,n,200,0.36,0.36,0.72,18.9,79.2,1015.32,0.18,0,0,0,0.033073
2018/04/06 03:00:00.008,n,164,1.8,1.08,2.52,18.9,79.2,1015.32,0.18,0,0,0,0.036545
2018/04/06 03:01:00.000,n,225,1.44,1.44,2.16,18.9,79.2,1015.22,0.18,0,0,0,0.031357
2018/04/06 03:02:00.003,n,242,2.16,1.8,2.88,18.9,78.9,1015.22,0.18,0,0,0,0.034828
2018/04/06 03:03:00.000,n,108,3.6,2.52,4.32,19,79.4,1015.32,0.18,0,0,0,0.033073
2018/04/06 03:04:00.000,n,89,2.16,1.44,3.6,19,79.9,1015.32,0.18,0,0,0,0.034828
2018/04/06 03:05:00.000,n,83,3.24,2.88,3.6,19,80.3,1015.42,0.18,0,0,0,0.033073
2018/04/06 03:06:00.008,n,81,2.52,2.16,3.24,19,80.1,1015.42,0.18,0,0,0,0.031357
2018/04/06 03:07:00.004,n,181,1.08,0.36,2.16,19,79.9,1015.42,0.18,0,0,0,0.036545
2018/04/06 03:08:00.001,n,38,2.52,1.8,2.88,19,80.7,1015.42,0.18,0,0,0,0.033073
2018/04/06 03:09:00.015,n,71,3.6,2.88,4.32,19.1,81.1,1015.52,0.18,0,0,0,0.029602
2018/04/06 03:10:00.000,n,66,3.6,3.24,4.32,19.1,80.8,1015.52,0.18,0,0,0,0.026131
2018/04/06 03:11:00.000,n,96,4.32,3.24,4.68,19,80.4,1015.52,0.18,0,0,0,0.035706
2018/04/06 03:12:00.000,n,55,3.24,2.88,4.32,18.9,79.9,1015.52,0.18,0,0,0,0.029602
2018/04/06 03:13:00.004,n,95,2.16,1.8,2.16,18.9,80.3,1015.52,0.18,0,0,0,0.028725
2018/04/06 03:14:00.002,n,119,2.88,2.16,3.24,18.8,79.7,1015.52,0.18,0,0,0,0.030479
2018/04/06 03:15:00.001,n,152,3.24,2.88,3.6,18.8,79.6,1015.52,0.18,0,0,0,0.028725
2018/04/06 03:16:00.000,n,149,3.6,3.6,3.96,18.8,79.1,1015.52,0.18,0,0,0,0.032196
2018/04/06 03:17:00.012,n,143,3.96,2.52,5.04,18.8,80.2,1015.62,0.18,0.1,0,0,0.037422
2018/04/06 03:18:00.010,n,151,3.6,3.24,3.96,18.8,80,1015.62,0.18,0.1,0,0,0.027847
2018/04/06 03:19:00.000,n,162,3.6,3.24,3.96,18.8,79.6,1015.52,0.18,0,0,0,0.032196
2018/04/06 03:20:00.000,n,197,3.24,2.88,3.24,18.8,79.8,1015.52,0.18,0,0,0,0.027847
2018/04/06 03:21:00.003,n,215,4.68,4.32,4.68,18.8,79.3,1015.52,0.18,0,0,0,0.02697
2018/04/06 03:22:00.000,n,252,4.32,3.96,4.32,18.8,79.7,1015.42,0.18,0,0,0,0.029602
2018/04/06 03:23:00.000,n,261,3.24,2.88,3.6,18.8,79.8,1015.42,0.18,0,0,0,0.030479
2018/04/06 03:24:00.010,n,247,4.68,3.96,5.04,18.9,80.5,1015.42,0.18,0,0,0,0.025253
2018/04/06 03:25:00.007,n,235,2.52,2.16,2.88,18.9,80.4,1015.32,0.18,0,0,0,0.029602
2018/04/06 03:26:00.004,n,226,3.6,3.24,3.96,18.9,80.6,1015.32,0.18,0,0,0,0.029602
2018/04/06 03:27:00.001,n,207,2.52,1.8,3.24,18.9,80.4,1015.32,0.18,0,0,0,0.031357
2018/04/06 03:28:00.000,n,204,3.24,2.88,3.96,18.9,80.4,1015.32,0.18,0,0,0,0.02697
2018/04/06 03:29:00.000,n,208,3.6,3.24,4.32,18.8,80.6,1015.32,0.18,0,0,0,0.029602
2018/04/06 03:30:00.000,n,238,5.04,3.24,5.76,18.8,80.6,1015.22,0.18,0,0,0,0.027847
2018/04/06 03:31:00.007,n,226,4.68,2.52,5.04,18.8,80.7,1015.22,0.18,0,0,0,0.024376
2018/04/06 03:32:00.004,n,263,3.6,2.16,5.04,18.8,80.9,1015.22,0.18,0,0,0,0.02697
2018/04/06 03:33:00.001,n,175,2.88,0.72,3.96,18.8,80.7,1015.22,0.18,0,0,0,0.029602
2018/04/06 03:34:00.000,n,276,0.36,0,0.72,18.8,81.2,1015.22,0.18,0,0,0,0.027847
2018/04/06 03:35:00.012,n,253,4.32,3.6,5.4,18.8,80.7,1015.22,0.18,0,0,0,0.02697
2018/04/06 03:36:00.009,n,232,2.88,2.16,3.6,18.8,80.5,1015.22,0.18,0,0,0,0.026131
2018/04/06 03:37:00.000,n,252,2.16,1.8,2.52,18.8,80.5,1015.22,0.18,0,0,0,0.029602
2018/04/06 03:38:00.000,n,192,2.88,1.44,3.96,18.8,80.8,1015.22,0.18,0,0,0,0.02697
2018/04/06 03:39:00.002,n,169,3.96,2.88,5.76,18.8,80.6,1015.22,0.18,0,0,0,0.025253
2018/04/06 03:40:00.000,n,217,1.8,1.08,1.8,18.8,80.5,1015.22,0.18,0,0,0,0.02697
2018/04/06 03:41:00.000,n,258,2.52,2.16,3.24,18.8,81.3,1015.22,0.18,0,0,0,0.025253
2018/04/06 03:42:00.010,n,208,1.08,0.72,1.08,18.8,80.7,1015.22,0.18,0,0,0,0.026131
2018/04/06 03:43:00.007,n,229,4.68,3.96,5.4,18.8,80.4,1015.22,0.18,0,0,0,0.028725
2018/04/06 03:44:00.000,n,203,0.72,0.72,0.72,18.8,80.3,1015.22,0.18,0,0,0,0.032196
2018/04/06 03:45:00.013,n,111,1.8,1.08,2.16,18.8,80.5,1015.22,0.18,0,0,0,0.030441
2018/04/06 03:46:00.000,n,191,2.52,1.8,2.88,18.8,80.5,1015.22,0.18,0,0,0,0.032196
2018/04/06 03:47:00.000,n,177,1.44,1.08,1.8,18.8,80.5,1015.22,0.18,0,0,0,0.030441
2018/04/06 03:48:00.005,n,220,4.32,3.6,5.04,18.8,80.1,1015.22,0.18,0,0,0,0.03479
2018/04/06 03:49:00.001,n,180,2.16,1.8,2.16,18.8,80.3,1015.22,0.18,0,0,0,0.036545
2018/04/06 03:50:00.000,n,203,7.56,6.84,8.28,18.8,80.2,1015.22,0.18,0,0,0,0.026093
2018/04/06 03:51:00.000,n,168,4.68,3.96,5.04,18.9,80.2,1015.22,0.18,0,0,0,0.02697
2018/04/06 03:52:00.009,n,201,4.32,2.88,5.4,18.9,80.2,1015.22,0.18,0,0,0,0.028725
2018/04/06 03:53:00.006,n,214,1.44,0.72,1.8,18.9,80.3,1015.22,0.18,0,0,0,0.033951
2018/04/06 03:54:00.003,n,253,5.4,3.6,6.48,18.9,80,1015.12,0.18,0,0,0,0.027847
2018/04/06 03:55:00.000,n,237,1.08,0.72,2.16,18.9,80,1015.12,0.18,0,0,0,0.031319
2018/04/06 03:56:00.000,n,211,2.88,1.8,3.96,18.9,80.4,1015.12,0.18,0,0,0,0.031319
2018/04/06 03:57:00.000,n,206,3.6,3.6,3.6,18.9,80.1,1015.12,0.18,0,0,0,0.029564
2018/04/06 03:58:00.000,n,201,2.88,1.8,3.6,18.9,80.2,1015.22,0.18,0,0,0,0.027847
2018/04/06 03:59:00.006,n,207,3.6,2.88,4.68,18.9,80,1015.22,0.18,0,0,0,0.031319
2018/04/06 04:00:00.003,n,134,1.08,0.36,2.52,18.9,80,1015.22,0.18,0,0,0,0.029564
2018/04/06 04:01:00.000,n,207,3.24,2.88,3.6,18.9,79.8,1015.22,0.18,0,0,0,0.029564
2018/04/06 04:02:00.013,n,146,5.4,4.68,5.4,18.9,79.7,1015.22,0.18,0,0,0,0.030441
2018/04/06 04:03:00.010,n,129,4.68,4.32,4.68,18.9,79.7,1015.32,0.18,0,0,0,0.027847
2018/04/06 04:04:00.000,n,171,5.76,5.04,6.12,18.9,79.8,1015.32,0.18,0,0,0,0.027847
2018/04/06 04:05:00.000,n,150,4.32,3.24,5.4,18.9,79.8,1015.32,0.18,0,0,0,0.027847
2018/04/06 04:06:00.002,n,160,6.12,5.76,6.84,18.9,80,1015.32,0.18,0,0,0,0.02697
2018/04/06 04:07:00.000,n,191,6.12,4.68,6.84,18.9,80.2,1015.32,0.18,0,0,0,0.028725
2018/04/06 04:08:00.000,n,182,8.64,7.92,10.08,18.9,80,1015.32,0.18,0,0,0,0.026093
2018/04/06 04:09:00.010,n,179,8.28,7.56,8.64,18.9,80.3,1015.32,0.18,0,0,0,0.02697
2018/04/06 04:10:00.006,n,146,3.96,2.88,5.4,18.9,80.5,1015.32,0.18,0,0,0,0.025215
2018/04/06 04:11:00.003,n,244,2.52,1.8,2.88,18.9,80.5,1015.32,0.18,0,0,0,0.025215
2018/04/06 04:12:00.001,n,243,4.32,3.96,5.04,18.9,80.8,1015.32,0.18,0,0,0,0.025215
2018/04/06 04:13:00.000,n,204,1.44,0.72,2.16,18.9,80.7,1015.32,0.18,0,0,0,0.032196
2018/04/06 04:14:00.000,n,147,4.68,4.68,5.76,18.9,80.5,1015.32,0.18,0,0,0,0.028725
2018/04/06 04:15:00.000,n,181,3.96,3.6,4.68,18.9,80.7,1015.42,0.18,0,0,0,0.029564
2018/04/06 04:16:00.000,n,174,2.88,2.52,3.24,18.9,80.6,1015.32,0.18,0,0,0,0.026093
2018/04/06 04:17:00.006,n,239,2.52,2.16,3.6,18.9,81,1015.32,0.18,0,0,0,0.02697
2018/04/06 04:18:00.002,n,255,2.52,2.52,3.24,18.9,80.9,1015.32,0.18,0,0,0,0.027847
2018/04/06 04:19:00.000,n,224,3.6,3.24,3.96,18.9,80.7,1015.32,0.18,0,0,0,0.024376
2018/04/06 04:20:00.014,n,223,3.96,3.96,4.68,18.8,81,1015.32,0.18,0,0,0,0.02697
2018/04/06 04:21:00.010,n,254,4.68,3.96,5.4,18.8,80.9,1015.32,0.18,0,0,0,0.026093
2018/04/06 04:22:00.000,n,256,6.84,6.48,7.2,18.8,80.9,1015.32,0.18,0,0,0,0.026093
2018/04/06 04:23:00.000,n,263,8.28,6.12,9.72,18.8,81,1015.32,0.18,0,0,0,0.026093
2018/04/06 04:24:00.002,n,236,0.36,0.36,0.36,18.8,81.1,1015.32,0.18,0,0,0,0.023499
2018/04/06 04:25:00.000,n,93,4.68,3.96,5.04,18.8,81.3,1015.32,0.18,0,0,0,0.025215
2018/04/06 04:26:00.000,n,179,1.8,1.44,2.88,18.8,81.3,1015.32,0.18,0,0,0,0.024376
2018/04/06 04:27:00.009,n,187,5.04,4.32,6.12,18.8,81.3,1015.32,0.18,0,0,0,0.027847
2018/04/06 04:28:00.006,n,206,1.44,0.36,1.8,18.8,81.3,1015.32,0.18,0,0,0,0.02697
2018/04/06 04:29:00.003,n,202,2.16,1.8,2.52,18.8,81.5,1015.32,0.18,0,0,0,0.026093
2018/04/06 04:30:00.000,n,209,2.16,1.8,2.88,18.7,81.5,1015.32,0.18,0,0,0,0.026093
2018/04/06 04:31:00.000,n,241,4.32,3.6,5.04,18.7,81.6,1015.32,0.18,0,0,0,0.024376
2018/04/06 04:32:00.000,n,262,4.32,3.96,4.68,18.7,81.6,1015.32,0.18,0,0,0,0.026093
2018/04/06 04:33:00.000,n,259,3.6,2.88,3.96,18.7,82,1015.32,0.18,0,0,0,0.024376
2018/04/06 04:34:00.008,n,115,0.72,0.36,1.44,18.7,81.8,1015.42,0.18,0,0,0,0.024376
2018/04/06 04:35:00.004,n,222,3.24,1.44,4.32,18.8,82.2,1015.42,0.18,0,0,0,0.023499
2018/04/06 04:36:00.002,n,169,2.88,2.16,3.24,18.8,82.1,1015.42,0.18,0,0,0,0.021744
2018/04/06 04:37:00.000,n,106,0.72,0.72,0.72,18.8,82,1015.42,0.18,0,0,0,0.022621
2018/04/06 04:38:00.013,n,232,3.24,2.88,3.6,18.8,82,1015.42,0.18,0,0,0,0.020866
2018/04/06 04:39:00.010,n,215,0.72,0.36,1.44,18.7,82.1,1015.32,0.18,0,0,0,0.031319
2018/04/06 04:40:00.000,n,276,5.04,1.8,6.48,18.7,82.3,1015.32,0.18,0,0,0,0.025215
2018/04/06 04:41:00.004,n,247,5.04,3.6,6.48,18.8,82.5,1015.32,0.18,0,0,0,0.022621
2018/04/06 04:42:00.000,n,274,4.32,3.6,5.4,18.8,82.4,1015.32,0.18,0,0,0,0.022621
2018/04/06 04:43:00.000,n,267,2.16,1.8,2.52,18.7,82,1015.32,0.18,0,0,0,0.021744
2018/04/06 04:44:00.000,n,249,3.6,3.24,3.96,18.7,82,1015.42,0.18,0,0,0,0.022621
2018/04/06 04:45:00.009,n,287,5.76,5.04,6.48,18.7,82.1,1015.32,0.18,0,0,0,0.024376
2018/04/06 04:46:00.005,n,301,1.8,1.44,2.52,18.7,82.1,1015.32,0.18,0,0,0,0.022621
2018/04/06 04:47:00.003,n,245,1.8,1.44,1.8,18.7,82.1,1015.32,0.18,0,0,0,0.026131
2018/04/06 04:48:00.015,n,253,4.68,4.32,5.4,18.6,82.2,1015.32,0.18,0,0,0,0.030479
2018/04/06 04:49:00.000,n,235,2.52,1.8,3.96,18.6,82.1,1015.32,0.18,0,0,0,0.027847
2018/04/06 04:50:00.000,n,196,3.6,2.16,5.04,18.6,82.3,1015.32,0.18,0,0,0,0.026131
2018/04/06 04:51:00.000,n,202,5.04,4.32,6.48,18.6,82.3,1015.32,0.18,0,0,0,0.031357